Simultaneous Nadir Overpasses (SNOs) Predictions

Prediction of SNOs between GOES-15 and LANDSAT-8 Satellite Orbit:

Table of predicted SNOs for the next 14.0 days since TLE Epoch: 9/3/2022
Index Date Time (GOES-15) GOES-15 Lat,Lon LANDSAT-8 Lat,Lon Distance(km) Time Diff (sec)
1 09/04/2022 18:33:49 -0.24,-127.88 -0.84,-125.04 323.71 80
2 09/05/2022 06:52:34 0.26,-127.82 -0.24,-130.23 274.46 80
3 09/07/2022 06:43:04 0.26,-127.77 0.39,-127.28 56.08 80
4 09/09/2022 06:30:53 0.25,-127.72 0.96,-124.32 386.36 80
5 09/09/2022 18:49:28 -0.28,-127.75 0.12,-129.48 196.79 80
6 09/11/2022 18:39:59 -0.28,-127.70 -0.52,-126.53 133.82 80
7 09/12/2022 07:01:23 0.30,-127.65 -0.55,-131.72 462.68 80
8 09/13/2022 18:27:49 -0.27,-127.65 -1.17,-123.58 464.37 80
9 09/14/2022 06:49:12 0.29,-127.60 0.04,-128.76 132.41 80
10 09/16/2022 06:34:21 0.28,-127.54 0.63,-125.80 197.42 80
11 09/16/2022 18:55:37 -0.30,-127.56 0.45,-130.96 387.59 80
